Preview of NWS' New Version of Forecast
This preview is not operational and should not be used for support decisions.

Regional Weather Roundup (RWR)

Issued by National Weather Service (NWS)

                            
000
ASUS45 KBOU 171410
RWRCO 

WEATHER ROUNDUP FOR COLORADO
NATIONAL WEATHER SERVICE DENVER/BOULDER CO
700 AM MST SUN FEB 17 2019

NOTE: "FAIR" INDICATES FEW OR NO CLOUDS BELOW 12000 FEET WITH NO
SIGNIFICANT WEATHER AND/OR OBSTRUCTIONS TO VISIBILITY.

COZ001>005-013-030-031-171500-
...NORTHWEST COLORADO...
  
CITY           SKY/WX    TMP DP  RH WIND       PRES   REMARKS
CRAIG          MOCLDY     5   1  83 CALM      29.83R                  
HAYDEN         LGT SNOW  10   7  85 E10       29.82F FOG     WCI  -3  
MEEKER         FAIR       6   0  76 NE3       29.82S                  
RANGELY        FAIR       1  -3  86 CALM      29.87S                  
RABBIT EARS PA NOT AVBL                                               
STEAMBOAT SPGS CLOUDY     8   5  90 CALM      29.81R                  
WALDEN         MOCLDY     0  -6  78 NW6       29.74S WCI -12          
$$

COZ006>008-011-171500-
...WEST CENTRAL VALLEYS...
  
CITY           SKY/WX    TMP DP  RH WIND       PRES   REMARKS
GRAND JUNCTION FAIR      21  14  74 SE6       29.85R WCI  13          
MONTROSE       FAIR      17   6  62 SE7       29.88R WCI   8          
EAGLE          CLOUDY     3  -1  83 S3        29.88R                  
RIFLE          FAIR      11   7  84 CALM      29.87R                  
DELTA          FAIR      22  12  65 NE7       29.88R WCI  14          
NUCLA          FAIR      18   9  68 E7        29.87S WCI   8          
$$

COZ017>023-064>068-171500-
...SOUTHWEST COLORADO...
  
CITY           SKY/WX    TMP DP  RH WIND       PRES   REMARKS
DURANGO        FAIR       5   0  79 CALM      29.84R                  
CORTEZ         FAIR      16   8  71 CALM      29.84S                  
PAGOSA SPRINGS NOT AVBL                                               
TELLURIDE      FAIR       7   0  72 SE9       29.76S WCI  -7          
WOLF CREEK PAS   N/A     -4  -6  92 SW8       29.70S WCI -19          
$$

COZ009-010-012-014-032>034-037-058>063-171500-
...CENTRAL COLORADO...
  
CITY           SKY/WX    TMP DP  RH WIND       PRES   REMARKS
ASPEN          CLOUDY     7  -1  70 S5        29.76R WCI  -2          
BUENA VISTA    FAIR       1  -6  74 CALM      29.79R                  
COPPER MTN     CLOUDY     1  -6  71 MISG      29.60R                  
BERTHOUD PASS  CLOUDY    -6 -17  59 NW26G36   29.52S WCI -32          
COTTONWOOD PAS CLOUDY    10   0  61 NW5       29.69S WCI   2          
GUNNISON       CLOUDY   -14 -19  79 CALM      29.88R                  
GRANBY         LGT SNOW  -4  -7  85 CALM      29.76R                  
KREMMLING      FAIR      -8 -11  84 CALM      29.81S                  
LEADVILLE      FAIR      -5  -9  83 S3        29.67R                  
MONARCH PASS   CLOUDY    -2  -6  84 MISG      29.73R                  
SALIDA         FAIR      13   1  56 W5        29.87R WCI   6          
SUNLIGHT         N/A    N/A N/A N/A MISG      29.71S                  
WILKERSON PASS FAIR       0  -8  71 W7        29.65R WCI -13          
$$

COZ069>075-171500-
...SAN LUIS VALLEY/SANGRE DE CRISTO MOUNTAINS...
  
CITY           SKY/WX    TMP DP  RH WIND       PRES   REMARKS
ALAMOSA        FAIR      -2  -7  79 W6        29.82S WCI -14          
DEL NORTE      FAIR       1 -10  60 W12       29.82S WCI -16          
LA VETA PASS   NOT AVBL                                               
SAGUACHE       FAIR       1  -6  71 CALM      29.82R                  
$$

COZ035-036-038>040-171500-
...NORTHERN COLORADO FRONT RANGE...
  
CITY           SKY/WX    TMP DP  RH WIND       PRES   REMARKS
DENVER INTL AP FAIR      18   2  49 W9        29.76R WCI   7          
AURORA         PTCLDY    17   1  49 CALM      29.77R                  
FRONT RANGE AP PTCLDY    19   3  49 SW8       29.77  WCI   9          
ERIE MUNI ARPT FAIR      28   0  31 NW5       29.83R WCI  22          
BOULDER MUN AP FAIR      28   3  34 N8        29.76R WCI  20          
CENTENNIAL     FAIR      15   0  51 SW7       29.75R WCI   5          
BROOMFIELD     PTCLDY    27   1  33 NW9       29.76R WCI  17          
FORT COLLINS   FAIR      13   7  77 N3        29.80R                  
LONGMONT       FAIR      24   4  42 N9        29.80R WCI  14          
$$

COZ041-046-047-076>085-087-088-171500-
...PIKES PEAK/PALMER DIVIDE AND SOUTHERN FOOTHILLS...
  
CITY           SKY/WX    TMP DP  RH WIND       PRES   REMARKS
COLO. SPRINGS  FAIR      18  -3  39 SW6       29.77R WCI  10          
A. F. ACADEMY  FAIR      16  -4  39 N7        29.75R WCI   6          
SCHRIEVER AFB  NOT AVBL                                               
CHEYENNE MTN   FAIR      21  -8  27 SE6       29.69R WCI  13          
ELLICOTT       NOT AVBL                                               
FALCON         FAIR      15  -5  40 W9        29.74S WCI   3          
FORT CARSON    FAIR      18  -4  37 W5        29.77R WCI  11          
LIMON          FAIR      10   2  69 NW6       29.77S WCI   0          
MONUMENT HILL  FAIR      10  -4  52 W6        29.75R WCI   1          
CANON CITY     NOT AVBL                                               
WALSENBURG     NOT AVBL                                               
TRINIDAD       FAIR      11   2  67 W5        29.81R WCI   3          
$$

COZ042>045-048>051-090-091-171500-
...NORTHEAST COLORADO...
  
CITY           SKY/WX    TMP DP  RH WIND       PRES   REMARKS
GREELEY ARPT   FAIR      10   7  87 E7        29.82R WCI  -1          
AKRON          FAIR      14  12  92 NW10      29.80R WCI   1          
BURLINGTON     MOCLDY    11   9  92 N3        29.83R FOG              
WRAY           FAIR      10   5  79 W5        29.86R WCI   2          
YUMA           NOT AVBL                                               
STERLING       FAIR      10   9  92 CALM      29.84R                  
HOLYOKE        FAIR      12   7  79 N12       29.86R WCI  -2          
FORT MORGAN      N/A     12   9  87 N5        29.83R WCI   4          
$$

COZ086-089-092>099-171500-
...SOUTHEAST COLORADO...
  
CITY           SKY/WX    TMP DP  RH WIND       PRES   REMARKS
PUEBLO         FAIR       7   1  76 NW3       29.82R                  
LA JUNTA       FAIR      14   8  77 NW8       29.84R WCI   3          
LAMAR          FAIR      11   8  88 MISG      29.85R                  
SPRINGFIELD      N/A     14   9  80 W7        29.85R WCI   4          
$$